Wind_Speed
10 9 8 7 7 6 5 5 5 6 6 7 7 7 6 5 5 5 5 5 6 6 7 8 9 9 9 10 11 11 11 10 10 11 11 11 11 11 10 9 9 8 7
9 8 7 6 5 5 4 3 3 4 4 5 5 5 5 5 5 5 4 4 5 5 6 7 8 9 9 10 11 11 12 12 12 12 13 13 13 13 12 12 11 10 10
7 7 6 5 4 4 3 3 2 2 3 4 3 3 3 3 4 4 4 4 4 5 5 6 7 8 9 10 11 11 12 12 12 13 14 14 15 15 14 14 14 13 12
6 5 5 4 4 3 3 3 2 1 1 2 2 2 2 2 3 3 3 3 4 4 5 5 6 7 8 9 10 11 12 12 13 14 14 15 16 16 17 16 16 16 15
6 5 5 4 4 3 2 2 1 0 0 0 1 2 2 2 2 2 3 3 3 4 4 5 6 6 7 8 9 10 11 11 12 14 15 15 16 17 18 18 18 18 18
7 6 6 5 4 4 3 3 3 3 2 2 2 2 2 2 2 2 2 3 3 3 4 4 5 6 7 8 9 9 9 10 11 13 14 16 16 17 18 19 19 20 20
7 7 7 7 6 5 5 4 4 4 4 3 3 3 3 3 4 3 2 2 2 3 4 4 4 4 5 6 7 8 9 10 12 12 13 15 17 17 18 18 19 21 22
8 8 8 8 7 6 5 5 4 4 4 3 3 3 4 5 5 4 4 3 3 3 4 4 4 4 4 5 7 8 9 10 11 12 13 15 16 17 18 20 20 21 22
10 9 9 8 8 7 6 5 5 4 3 4 4 4 5 6 6 5 5 4 4 4 4 4 4 4 5 5 5 6 8 9 11 12 13 14 15 17 18 20 21 21 22
10 9 9 9 8 7 7 6 5 4 3 3 4 4 5 5 5 6 6 5 5 5 5 5 5 5 5 6 6 7 8 8 9 11 13 14 15 15 17 19 20 21 22
11 10 9 9 9 8 7 6 5 4 3 2 2 3 3 4 5 5 6 6 6 6 5 6 6 6 6 6 6 7 8 8 9 10 11 13 14 15 16 18 19 20 21
12 11 10 10 9 8 7 6 5 4 2 1 0 1 2 3 4 5 6 6 7 7 6 7 7 7 7 7 7 8 8 9 10 11 12 13 14 15 16 18 18 20 21
13 12 11 11 10 9 8 7 6 5 4 3 3 3 3 4 5 6 7 7 7 8 8 8 8 8 8 9 9 9 10 10 11 12 13 14 15 16 17 18 19 21 22
13 13 12 12 11 10 10 9 8 8 7 7 6 7 7 7 7 8 9 9 9 10 10 9 10 10 10 10 11 11 11 12 12 13 14 15 16 17 18 18 20 22 23
14 14 14 13 13 12 12 12 11 11 10 10 10 10 10 11 11 11 12 12 12 12 12 12 12 12 12 13 13 14 14 14 14 15 15 16 17 17 18 19 21 22 23
16 15 15 15 14 14 14 14 14 14 14 14 14 14 14 14 14 15 15 15 15 15 15 15 15 15 15 16 16 16 16 17 17 17 17 17 18 19 20 20 21 22 24
17 17 17 16 17 17 17 17 17 17 17 17 17 17 18 18 18 18 18 18 18 18 18 18 18 18 18 18 18 19 19 19 19 19 19 19 20 21 21 22 23 23 24
19 19 19 19 19 19 19 20 20 20 20 20 21 21 21 21 21 21 21 21 21 21 20 21 21 21 21 21 21 22 22 22 22 22 22 22 22 23 23 23 24 25 26
20 21 21 22 22 22 22 22 22 23 23 23 24 24 24 24 24 24 24 24 24 24 24 24 24 24 24 24 24 24 25 25 25 25 25 25 25 25 26 26 26 27 28
22 23 23 23 24 24 24 25 25 26 26 27 27 27 27 27 27 27 27 27 27 27 27 27 27 27 27 27 27 27 27 27 27 27 28 28 28 28 28 29 29 29 29
24 25 25 26 26 26 27 27 28 28 29 30 30 30 30 30 30 30 30 30 30 30 30 30 30 30 30 30 30 30 30 30 30 31 31 31 31 31 31 31 31 31 31
24 25 27 28 28 29 30 30 31 31 31 32 33 33 33 33 33 33 32 32 32 32 32 33 32 33 33 33 34 34 34 33 33 34 34 33 34 33 33 33 33 34 33
27 27 28 29 30 32 33 34 33 33 34 34 34 34 35 35 35 35 35 35 34 34 35 35 35 35 36 37 37 37 37 37 36 37 37 36 37 36 36 36 36 36 36
29 29 30 31 32 32 33 34 35 35 35 35 36 36 37 37 38 38 37 37 37 37 38 38 38 38 39 40 41 41 41 41 40 40 41 40 40 40 39 39 39 38 38
29 30 31 31 32 34 35 36 36 37 37 37 38 38 39 38 39 40 39 39 39 40 41 41 41 41 41 42 43 44 44 45 43 42 44 44 44 44 42 41 41 42 41
31 32 33 34 34 35 36 36 37 36 36 37 37 38 38 39 40 41 41 41 41 42 43 44 44 44 44 45 46 48 48 49 48 46 46 48 48 48 46 44 44 44 45
Wind_Direction
271 271 272 270 272 270 262 262 270 285 288 284 282 283 281 279 277 277 283 258 252 255 257 250 244 245 246 245 244 244 244 244 241 237 234 233 233 232 231 231 230 229 228
259 258 254 256 260 260 258 259 273 287 292 292 287 282 278 276 275 278 273 265 263 261 262 256 251 250 251 249 247 246 247 247 244 239 237 237 236 236 236 236 235 235 234
244 244 241 232 238 240 246 251 260 281 297 304 303 297 288 280 275 274 275 270 266 264 263 263 259 256 252 249 249 249 249 249 245 241 241 241 238 237 238 238 237 238 239
230 230 217 213 213 213 222 225 232 272 305 313 324 321 297 288 280 281 284 282 274 269 268 265 263 259 256 254 251 251 251 252 249 244 242 240 239 238 238 239 240 240 240
215 211 201 199 190 182 177 182 179 159 52 1 343 345 343 331 320 304 293 293 290 279 271 270 268 264 260 258 252 250 252 254 254 249 245 242 242 242 243 241 242 242 240
203 199 192 186 173 164 157 151 133 115 101 82 57 31 23 16 357 337 310 302 301 301 290 282 281 272 263 260 256 256 255 255 256 252 248 244 244 246 246 244 242 241 240
193 189 181 173 165 158 152 145 132 118 102 80 60 45 39 38 27 13 359 337 325 322 319 309 301 294 278 271 264 259 263 260 256 253 251 247 246 248 247 246 245 242 241
184 178 173 170 166 162 157 150 139 124 107 88 71 57 48 47 42 33 22 5 350 344 337 326 315 311 307 287 270 266 268 265 260 257 254 252 250 250 251 248 248 245 243
181 176 175 174 173 170 163 155 145 129 111 91 74 65 59 50 46 40 31 20 5 355 349 344 328 315 309 304 294 282 279 273 264 259 258 258 257 254 254 252 250 249 246
183 181 178 177 177 175 168 162 152 134 117 99 82 69 60 52 45 37 31 22 15 7 355 342 334 328 316 306 299 293 287 282 272 265 262 262 262 260 258 253 251 251 249
189 187 185 184 182 179 176 173 168 157 136 108 81 59 46 37 30 26 23 17 9 3 356 345 335 328 324 317 305 295 289 286 283 278 273 269 265 263 261 258 254 253 252
195 193 193 191 188 188 189 191 192 194 195 201 318 356 5 2 0 359 0 360 357 355 352 347 336 327 322 316 309 300 293 289 285 282 279 275 271 268 264 260 258 255 253
201 200 200 199 199 202 208 213 219 227 240 260 281 297 312 323 329 335 339 340 339 337 335 333 328 322 319 315 309 304 298 292 288 284 281 277 274 272 269 265 261 258 255
206 206 206 208 211 215 222 229 237 244 254 267 280 288 294 302 308 314 318 321 320 319 318 317 316 314 311 309 306 303 300 296 291 287 283 280 276 274 271 269 266 263 259
212 212 214 218 221 226 231 238 245 252 260 270 279 284 287 293 298 302 305 307 308 306 305 305 305 305 304 304 303 300 299 297 293 289 285 281 277 275 273 271 269 266 264
218 219 222 228 232 236 241 245 250 256 263 270 276 281 285 289 293 295 298 299 299 298 297 296 297 297 297 297 297 297 296 294 292 290 287 284 280 276 274 272 270 268 266
225 227 230 235 240 245 248 251 255 260 264 269 274 278 282 285 287 290 293 294 294 293 292 292 292 292 292 292 292 292 293 292 291 289 286 284 281 279 276 274 272 271 268
231 234 237 241 245 250 253 256 258 262 266 269 273 277 279 282 284 286 288 289 289 288 288 288 289 289 288 288 288 289 289 289 288 286 285 283 281 280 278 276 274 273 271
238 240 243 247 250 253 256 259 262 264 267 270 273 275 277 279 281 284 285 285 285 284 284 284 285 286 285 285 285 286 287 287 285 284 283 282 281 280 279 278 276 274 272
243 245 248 251 253 256 259 261 264 266 268 270 272 274 276 278 279 281 283 283 283 282 282 282 283 283 283 283 283 283 284 285 284 282 281 280 280 280 280 278 277 275 273
249 250 251 254 256 257 260 262 264 266 268 270 271 272 274 276 277 278 279 281 281 280 280 280 280 281 280 280 281 281 281 281 281 280 280 280 279 279 279 278 276 275 273
253 254 255 256 258 261 262 263 265 266 268 269 270 272 273 274 275 276 277 278 279 279 279 279 278 279 279 279 280 280 279 279 278 278 278 278 278 278 277 277 275 274 273
257 261 261 261 262 265 265 265 267 270 269 268 270 273 273 274 274 275 276 277 278 278 278 278 277 277 277 277 278 278 278 277 277 276 276 276 276 276 276 275 274 273 272
262 263 264 264 264 268 269 270 272 274 272 273 272 272 272 273 275 275 276 277 278 278 277 277 277 277 277 277 277 277 276 275 275 275 275 275 274 274 274 274 273 272 271
267 268 268 269 270 270 272 273 274 276 274 273 273 272 272 273 274 275 276 276 277 276 276 277 278 277 277 276 276 277 277 276 275 275 276 275 273 273 272 272 272 271 271
271 271 270 272 273 273 273 273 274 274 274 274 273 273 273 272 273 275 276 276 276 275 275 276 277 277 277 277 277 277 276 276 276 275 275 274 273 273 272 271 271 270 270
Height
5889 5889 5888 5888 5887 5887 5887 5886 5885 5884 5884 5883 5883 5883 5883 5883 5884 5884 5884 5884 5884 5884 5885 5885 5886 5886 5887 5888 5888 5889 5890 5891 5892 5893 5894 5895 5897 5898 5899 5899 5900 5901 5901
5887 5887 5887 5886 5886 5886 5886 5885 5885 5884 5883 5882 5882 5882 5882 5882 5882 5882 5882 5883 5883 5883 5883 5883 5884 5884 5884 5885 5886 5887 5887 5888 5889 5890 5892 5893 5894 5896 5897 5898 5899 5900 5900
5885 5885 5885 5885 5885 5885 5885 5885 5884 5883 5882 5882 5881 5881 5881 5881 5881 5881 5881 5881 5881 5881 5881 5881 5882 5882 5882 5882 5883 5884 5885 5886 5886 5888 5889 5890 5891 5893 5894 5895 5896 5898 5898
5883 5884 5884 5884 5884 5884 5884 5884 5884 5883 5882 5881 5881 5880 5880 5880 5879 5879 5879 5879 5879 5880 5880 5880 5880 5880 5880 5880 5881 5881 5882 5883 5884 5885 5886 5887 5888 5889 5891 5892 5894 5895 5896
5882 5882 5883 5883 5883 5883 5883 5883 5883 5882 5882 5881 5880 5880 5879 5879 5879 5879 5878 5878 5878 5878 5878 5878 5878 5878 5878 5878 5878 5879 5879 5880 5881 5881 5882 5883 5885 5886 5887 5889 5890 5891 5893
5880 5881 5882 5882 5882 5882 5883 5883 5883 5882 5882 5881 5881 5880 5879 5879 5878 5878 5878 5877 5877 5877 5877 5877 5877 5876 5876 5876 5876 5876 5877 5877 5878 5878 5879 5880 5881 5882 5883 5885 5886 5887 5889
5879 5880 5881 5881 5882 5882 5882 5883 5883 5882 5882 5881 5881 5880 5879 5879 5878 5877 5877 5877 5876 5876 5876 5875 5875 5874 5874 5874 5874 5874 5874 5875 5875 5875 5876 5877 5878 5879 5880 5881 5882 5883 5885
5878 5879 5880 5880 5881 5882 5882 5882 5882 5882 5882 5882 5881 5880 5879 5879 5878 5877 5877 5876 5876 5875 5875 5874 5874 5873 5872 5872 5872 5872 5872 5872 5872 5872 5873 5873 5874 5875 5876 5877 5878 5879 5880
5877 5878 5879 5879 5880 5881 5881 5882 5882 5882 5882 5882 5881 5881 5880 5879 5878 5878 5877 5876 5875 5875 5874 5873 5872 5872 5871 5871 5870 5870 5870 5869 5869 5869 5870 5870 5870 5871 5872 5872 5873 5874 5875
5876 5877 5877 5878 5879 5880 5881 5881 5881 5881 5881 5881 5881 5880 5880 5879 5878 5877 5877 5876 5875 5874 5873 5872 5871 5870 5870 5869 5868 5868 5867 5867 5867 5866 5866 5867 5867 5867 5867 5868 5868 5869 5870
5874 5875 5876 5877 5878 5879 5879 5880 5880 5881 5881 5881 5880 5880 5879 5879 5878 5877 5876 5875 5874 5873 5872 5871 5870 5869 5868 5867 5866 5866 5865 5865 5864 5864 5863 5863 5863 5863 5863 5863 5864 5864 5865
5872 5874 5875 5876 5877 5877 5878 5879 5879 5879 5879 5879 5879 5879 5878 5878 5877 5876 5875 5874 5873 5872 5871 5870 5868 5867 5866 5865 5865 5864 5863 5862 5861 5861 5860 5860 5859 5859 5859 5859 5859 5859 5860
5870 5872 5873 5874 5875 5876 5876 5877 5877 5878 5878 5878 5878 5877 5877 5876 5875 5874 5873 5872 5871 5870 5869 5868 5866 5865 5864 5863 5862 5861 5860 5859 5858 5857 5856 5856 5855 5855 5854 5854 5854 5854 5854
5868 5869 5871 5872 5872 5873 5874 5875 5875 5875 5875 5875 5875 5874 5874 5873 5873 5872 5871 5870 5869 5868 5866 5865 5864 5862 5861 5860 5859 5857 5856 5855 5854 5853 5852 5851 5851 5850 5850 5849 5849 5849 5849
5865 5867 5868 5869 5870 5871 5871 5872 5872 5872 5872 5872 5872 5871 5871 5870 5869 5869 5868 5867 5866 5864 5863 5862 5861 5859 5857 5856 5855 5853 5852 5851 5850 5849 5848 5847 5846 5845 5844 5844 5843 5843 5843
5862 5863 5864 5865 5866 5867 5868 5868 5868 5868 5869 5868 5868 5868 5867 5866 5865 5864 5863 5862 5861 5860 5859 5858 5856 5855 5853 5852 5850 5849 5848 5846 5845 5844 5843 5842 5841 5840 5839 5838 5837 5837 5836
5858 5859 5860 5861 5862 5863 5863 5864 5864 5864 5864 5863 5863 5862 5862 5861 5860 5859 5858 5857 5856 5855 5854 5852 5851 5850 5848 5847 5845 5844 5842 5841 5839 5838 5837 5835 5834 5833 5832 5831 5831 5830 5829
5854 5855 5856 5857 5858 5858 5858 5858 5858 5858 5858 5858 5858 5857 5856 5855 5854 5853 5852 5851 5849 5848 5847 5846 5845 5843 5842 5841 5839 5838 5836 5835 5833 5831 5830 5829 5828 5827 5826 5824 5823 5822 5822
5850 5851 5852 5852 5852 5853 5853 5853 5853 5852 5852 5852 5851 5850 5849 5848 5847 5846 5845 5844 5842 5841 5840 5839 5837 5836 5835 5833 5832 5831 5829 5828 5826 5825 5823 5822 5820 5819 5818 5817 5816 5815 5814
5845 5845 5846 5846 5846 5846 5846 5846 5846 5845 5845 5844 5843 5843 5842 5841 5839 5838 5837 5836 5834 5833 5832 5831 5829 5828 5827 5825 5824 5822 5821 5819 5818 5817 5815 5814 5812 5811 5810 5808 5807 5806 5805
5839 5839 5839 5839 5839 5839 5838 5838 5837 5837 5836 5835 5834 5834 5833 5832 5830 5829 5828 5827 5826 5824 5823 5822 5821 5819 5818 5816 5815 5813 5812 5810 5809 5807 5806 5805 5803 5802 5800 5799 5798 5797 5796
5831 5832 5832 5831 5831 5831 5830 5829 5828 5828 5827 5826 5825 5824 5823 5822 5821 5820 5819 5817 5816 5815 5813 5812 5811 5810 5808 5807 5805 5804 5802 5801 5800 5798 5796 5795 5793 5792 5791 5789 5788 5787 5786
5823 5823 5823 5823 5823 5822 5821 5820 5819 5818 5817 5817 5816 5814 5813 5812 5811 5810 5808 5807 5806 5804 5803 5801 5800 5799 5797 5796 5794 5792 5791 5790 5789 5787 5785 5785 5782 5781 5780 5778 5777 5776 5775
5814 5814 5813 5814 5813 5812 5811 5810 5809 5808 5807 5806 5805 5804 5802 5801 5800 5799 5797 5797 5795 5793 5791 5789 5789 5787 5786 5784 5781 5780 5778 5777 5776 5775 5773 5772 5771 5769 5768 5766 5765 5764 5764
5805 5805 5804 5803 5803 5802 5801 5800 5799 5798 5797 5796 5794 5792 5791 5790 5788 5787 5786 5785 5783 5781 5778 5777 5776 5774 5773 5771 5768 5766 5765 5763 5763 5762 5759 5758 5758 5756 5755 5754 5753 5751 5751
5795 5795 5794 5794 5793 5791 5790 5789 5787 5786 5785 5784 5782 5781 5779 5778 5776 5774 5773 5772 5771 5769 5766 5764 5762 5761 5759 5757 5754 5752 5750 5748 5747 5748 5746 5743 5742 5740 5741 5740 5739 5738 5737